Tracking 18945 objects as of 19-Jan-2018
HD Live streaming from Space Station
objects crossing your sky now

COSMOS 1700

Track COSMOS 1700 now!
COSMOS 1700 is classified as:


NORAD ID: 16199
Int'l Code: 1985-102A
Perigee: 35,773.4 km
Apogee: 35,794.0 km
Inclination: 14.2 °
Period: 1,435.6 minutes
Semi major axis: 42154 km
RCS: 3.1622 m2 (large)
Launch date: October 25, 1985
Source: Commonwealth of Independent States (former USSR) (CIS)
Launch site: TYURATAM MISSILE AND SPACE COMPLEX (TTMTR)
aabbcc
Your satellite tracking list
Your tracking list is empty




NASA's NSSDC Master Catalog

Two Line Element Set (TLE):
1 16199U 85102A   18017.89421171 -.00000221 +00000-0 +00000-0 0  9998
2 16199 014.2353 345.2269 0002448 221.8931 319.1771 01.00307687120869
Source of the keplerian elements: AFSPC